Content
SEND FEEDBACK

Daily
Averages
Monthly
Summary
United States of America

BEDFORD PARK, ILLINOIS


Home > North America > United States > Illinois
Elevation: 623 feet     Latitude: 41 46N     Longitude: 087 45W

WEATHER
 
SELECT A DAY
Number of Records: 192,346;   Date Range: 1/1/95 - 10/22/14
 
SHARE

PRINT THIS DATA

[ ← Previous Day ]
WEATHER ALMANAC - JULY 18, 2013
[ Next Day → ]
[ °C ]   °F
Weather ElementAverageHighLow
Temperature87.1 °F95 °F (1:51 pm)79 °F (5:51 am)
Dewpoint71 °F73 °F (9:51 pm)68 °F (1:51 pm)
Humidity59.8 %79 % (5:51 am)41 % (1:51 pm)
Barometer30.04 in30.14 in (1:51 am)29.93 in (11:51 pm)
Wind Speed9.5 mph18.4 mph (5:51 pm)
Wind Gust28.8 mph (5:51 pm)
Weather ElementAverage
Visibility10 mi
Wind DirectionWSW (232.4 °)

Weather ElementTotal
Precipitation---
Cooling Degree Days22 (Base 65)
Growing Degree Days37 (Base 50)
Averaged from 25 records on July 18, 2013
WEATHER CONDITIONS BREAKOUT
WIND DIRECTION BREAKOUT
WEATHER BY HOUR - JULY 18, 2013
[ °C ]   °F
Local TimeTemperatureDewpointHumidityBarometerVisibilityWind DirectionWind SpeedGust SpeedPrecipitationEventsConditions
1:51 AM82.0 °F72.0 °F71 %30.14 in10.0 miWSW (240°)6.9 mphClear
2:51 AM81.0 °F72.0 °F74 %30.14 in10.0 miWSW (240°)5.8 mphClear
3:51 AM80.1 °F72.0 °F76 %30.13 in10.0 miWest (270°)4.6 mphClear
4:51 AM80.1 °F72.0 °F76 %30.12 in10.0 miSW (220°)4.6 mphClear
5:51 AM79.0 °F72.0 °F79 %30.12 in10.0 miSW (230°)3.5 mphPartly Cloudy
6:51 AM81.0 °F72.0 °F74 %30.12 in10.0 miWSW (240°)4.6 mphClear
7:51 AM84.0 °F72.0 °F67 %30.11 in10.0 miWNW (290°)4.6 mphClear
8:51 AM88.0 °F72.0 °F59 %30.11 in10.0 miWest (260°)6.9 mphClear
9:51 AM90.0 °F71.1 °F54 %30.10 in10.0 miWSW (250°)9.2 mphPartly Cloudy
10:51 AM91.0 °F70.0 °F50 %30.09 in10.0 miWSW (240°)10.4 mphScattered Clouds
11:51 AM91.9 °F69.1 °F47 %30.08 in10.0 miSW (220°)9.2 mphPartly Cloudy
12:51 PM93.0 °F70.0 °F47 %30.06 in10.0 miWSW (250°)11.5 mph20.7 mphPartly Cloudy
1:51 PM95.0 °F68.0 °F41 %30.03 in10.0 miSSW (210°)15.0 mph20.7 mphPartly Cloudy
2:51 PM95.0 °F69.1 °F43 %30.01 in10.0 miSW (230°)16.1 mph21.9 mphScattered Clouds
3:51 PM95.0 °F68.0 °F41 %29.98 in10.0 miWSW (250°)15.0 mph20.7 mphScattered Clouds
4:51 PM93.9 °F69.1 °F44 %29.97 in10.0 miWSW (240°)15.0 mph20.7 mphScattered Clouds
5:29 PM91.4 °F71.6 °F52 %29.99 in10.0 miWest (270°)11.5 mphThunderstormThunderstorm
5:51 PM88.0 °F71.1 °F57 %29.97 in10.0 miSSW (200°)18.4 mph28.8 mphThunderstormThunderstorm
6:09 PM84.2 °F69.8 °F62 %30.00 in10.0 miSouth (190°)10.4 mphMostly Cloudy
6:51 PM87.1 °F70.0 °F57 %29.96 in10.0 miSW (220°)10.4 mphMostly Cloudy
7:51 PM87.1 °F71.1 °F59 %29.94 in10.0 miSSW (200°)8.1 mphMostly Cloudy
8:51 PM86.0 °F72.0 °F63 %29.94 in10.0 miSSW (210°)8.1 mphMostly Cloudy
9:51 PM86.0 °F73.0 °F65 %29.94 in10.0 miSSW (210°)9.2 mph19.6 mphPartly Cloudy
10:51 PM84.9 °F73.0 °F67 %29.94 in10.0 miSSW (210°)10.4 mphClear
11:51 PM84.0 °F73.0 °F69 %29.93 in10.0 miSW (220°)9.2 mphClear
Hourly data recorded from KMDW, located miles away from Bedford Park, Illinois







STORIES FROM OUR PARTNERS